RH
14 17 17 17 17 13 14 16 13 14 21 20 17 27 45 54 60 74 71 59 59 59 50 45 48 49 47 42 42 41 39 38 37 35 34 34 32 31 30 27 25 25 25 27 27 28 29 29 31
16 17 18 18 16 20 14 19 13 19 26 24 28 32 37 49 54 57 63 56 56 54 50 50 50 48 43 41 40 41 41 41 39 38 34 32 32 33 33 31 27 27 26 28 29 28 29 28 30
18 20 20 21 20 19 19 21 20 26 23 26 27 31 32 43 51 54 52 50 52 51 50 52 47 45 45 43 42 43 45 43 42 40 40 42 38 37 36 33 30 28 28 28 29 29 29 29 29
22 23 21 21 21 22 23 23 17 22 19 25 28 26 30 37 41 46 45 48 51 52 52 49 46 43 43 41 37 36 36 40 46 46 44 44 46 53 49 40 33 31 30 28 28 29 29 29 30
22 23 25 26 25 25 20 20 19 24 21 26 24 28 32 39 43 44 46 47 48 49 46 43 41 42 42 40 35 35 36 39 41 46 48 48 47 46 47 50 43 37 34 31 29 29 30 29 30
22 22 25 28 29 24 19 19 22 24 26 26 23 30 34 40 43 45 46 48 46 43 41 41 42 42 42 40 39 37 37 38 37 42 48 55 56 54 52 53 57 49 41 36 33 30 31 30 30
21 24 23 27 30 25 22 22 23 26 25 25 30 30 34 37 41 44 42 42 42 42 39 39 40 40 40 39 38 37 36 35 38 41 44 50 59 67 65 60 57 58 61 46 37 35 32 31 30
20 22 22 23 27 29 22 23 24 26 24 23 24 29 35 34 38 39 38 37 35 34 33 32 32 31 28 27 27 26 27 28 33 37 44 46 52 59 65 69 65 61 60 62 56 41 37 34 32
22 23 23 24 25 31 23 23 24 24 25 28 29 31 34 36 36 36 36 35 35 32 31 30 29 27 25 24 23 22 21 21 22 23 25 33 44 52 57 65 73 71 65 62 66 67 54 42 38
22 25 29 23 25 25 22 23 22 27 28 30 31 32 34 37 37 37 37 37 36 32 31 31 31 27 22 20 21 21 20 19 19 19 20 20 22 24 33 46 55 63 65 65 63 63 67 65 49
23 24 22 23 22 22 22 23 22 23 24 26 31 34 36 37 38 37 37 35 33 29 25 24 23 21 20 18 15 14 15 15 13 12 11 11 11 12 14 17 30 46 61 66 64 65 62 66 66
20 21 22 21 22 21 22 22 22 26 28 27 30 30 31 32 34 34 33 31 27 23 21 17 14 14 14 12 11 11 11 11 11 10 10 10 10 10 9 9 12 12 25 43 62 73 66 67 78
23 20 18 18 20 20 20 21 21 27 28 28 28 29 29 29 28 24 23 22 21 20 18 15 15 13 12 12 11 11 11 11 11 11 12 12 12 11 11 10 9 9 11 14 30 52 72 67 62
19 21 20 20 20 19 20 19 22 24 24 25 25 27 27 27 26 24 21 20 20 20 19 16 15 14 13 13 12 12 12 12 12 13 14 13 13 12 12 12 12 13 15 15 14 26 44 65 73
11 11 13 14 16 17 19 17 18 21 24 23 22 21 22 22 19 19 20 20 20 20 20 17 16 15 15 14 14 13 14 13 14 16 16 15 16 15 15 16 15 17 18 17 15 12 20 42 59
11 11 11 15 12 13 13 14 17 19 21 23 22 22 23 23 21 19 19 19 20 21 21 19 18 18 16 16 15 16 16 16 19 20 20 21 21 21 18 19 20 20 18 19 20 18 18 20 41
15 15 17 19 17 15 13 13 20 19 17 18 20 21 20 21 21 22 21 21 22 23 21 22 21 20 18 17 17 19 20 21 22 23 23 22 23 23 23 22 20 19 20 21 21 21 23 20 21
18 23 20 19 20 18 17 17 19 21 18 18 19 19 21 22 22 22 22 23 24 25 25 26 26 24 22 23 22 23 24 25 25 24 24 24 24 24 24 24 24 24 23 25 25 26 24 24 22
18 15 15 16 18 20 21 21 22 26 27 25 24 24 25 26 26 25 25 26 27 28 29 29 30 29 29 27 27 28 28 27 26 25 25 26 27 26 25 26 26 27 27 27 27 28 30 29 25
23 21 18 19 21 22 24 19 21 23 27 28 26 29 30 32 32 32 34 34 35 35 36 35 35 35 33 34 33 33 32 30 28 28 28 28 29 29 28 28 29 29 31 30 29 29 29 31 30
25 28 29 30 30 29 31 23 24 24 26 32 31 32 34 36 38 37 39 40 40 41 42 42 41 41 41 39 38 36 34 33 31 31 31 32 33 32 32 32 32 33 34 33 33 33 31 31 31
27 27 30 30 31 29 28 26 27 31 33 34 36 39 41 40 40 42 45 46 46 46 47 47 47 47 45 44 42 39 36 35 36 35 35 36 36 37 38 40 38 40 39 37 36 38 37 35 34
29 30 30 29 31 32 30 34 23 31 35 38 40 40 42 44 44 45 47 48 48 49 49 50 50 48 46 42 39 39 39 40 41 41 40 39 41 43 43 43 43 44 45 45 44 42 40 40 39
30 32 32 35 35 39 34 42 26 35 46 50 50 46 47 49 48 49 50 50 53 54 53 51 49 44 40 36 39 42 46 48 47 45 45 46 46 46 47 48 49 50 50 50 50 49 46 45 42
31 37 42 43 47 46 40 44 42 49 46 50 50 50 55 54 56 56 56 56 57 57 55 52 50 43 39 35 40 42 46 48 49 50 49 48 50 53 54 54 53 53 51 50 50 52 52 52 49
32 38 42 48 41 39 40 50 53 59 50 50 50 55 57 59 63 65 66 65 65 64 59 56 52 45 41 34 36 37 32 33 43 51 55 57 57 59 58 60 61 59 53 49 48 51 50 50 51
33 35 36 41 39 45 34 36 47 45 51 58 57 63 69 69 71 71 67 62 59 59 57 51 45 36 37 31 27 24 33 35 33 43 52 60 62 63 62 64 65 62 58 55 53 52 53 53 51
26 33 45 54 67 63 52 50 64 81 80 75 69 65 69 72 74 75 71 72 65 56 60 48 41 33 25 26 25 26 24 32 32 31 39 47 60 68 68 66 68 66 64 62 56 58 59 59 61
49 54 56 52 60 73 68 60 73 74 70 70 63 66 73 78 78 78 81 71 63 57 57 45 39 33 27 28 26 23 24 26 26 24 24 26 37 60 73 72 70 70 69 64 67 73 77 78 80
41 38 57 77 62 63 79 80 72 69 66 68 66 69 75 79 79 81 80 72 63 56 49 44 42 40 33 30 29 29 23 22 27 22 22 21 23 31 39 61 73 76 78 78 81 84 87 92 87